Theta_e
298 300 301 303 305 308 309 310 311 314 323 323 325 326 326 325 322 318 312 307 305 300 300 296 296 298 298 296 296 295 295 295
300 300 302 303 304 307 308 309 308 308 309 318 324 324 320 316 311 308 304 303 303 302 296 295 294 295 295 295 294 293 292 292
300 300 300 301 303 305 307 308 309 309 310 310 313 317 314 316 310 305 300 302 296 298 294 294 294 294 293 292 292 291 290 290
299 300 300 301 303 305 306 306 306 306 308 309 310 310 311 307 305 303 297 297 293 295 293 292 292 292 292 291 291 290 290 289
299 299 300 301 302 303 303 304 303 303 306 306 306 306 306 302 299 297 295 293 290 292 291 291 291 291 290 290 289 288 288 288
300 300 300 300 300 300 302 301 301 301 302 303 300 300 297 295 293 290 292 290 292 289 290 290 290 288 289 289 288 287 287 287
299 299 299 299 299 298 300 299 298 299 299 297 294 291 291 289 288 288 288 288 288 287 288 288 286 289 289 289 287 287 286 285
300 300 300 300 299 298 298 298 296 296 293 291 291 290 289 287 286 286 286 287 286 287 288 287 287 289 289 288 287 286 286 285
300 301 301 301 299 300 298 295 294 293 290 289 289 288 287 286 286 286 286 285 285 286 287 287 287 289 289 286 287 286 286 285
300 300 301 300 299 297 294 293 293 292 291 289 289 288 287 286 286 286 285 285 285 286 286 287 288 289 288 286 286 285 284 285
297 298 299 299 297 293 292 291 291 292 291 290 289 288 287 287 286 285 286 285 285 285 286 286 287 289 288 286 286 284 284 284
296 296 297 295 293 292 291 290 292 291 290 288 288 288 288 287 286 285 285 285 285 284 285 285 286 288 288 287 285 285 284 284
292 292 293 292 291 291 290 292 289 288 287 287 286 287 287 286 285 285 285 284 284 284 283 283 284 286 289 289 287 287 285 284
287 288 289 287 289 289 290 288 287 286 286 286 286 286 286 285 284 284 284 284 283 282 282 282 282 283 287 288 289 287 285 285
285 285 286 285 285 287 287 286 285 285 285 285 285 285 285 286 285 285 284 284 283 283 283 282 281 282 284 285 287 286 286 284
283 284 284 284 284 285 285 285 285 285 285 285 285 284 285 285 285 285 286 286 284 284 283 282 281 281 283 284 284 284 285 283
282 282 282 282 282 282 281 284 285 284 283 284 285 284 284 284 283 285 285 285 286 286 285 284 284 285 284 284 284 284 284 281
279 280 281 280 281 281 281 281 282 285 284 284 283 283 283 283 283 280 281 284 284 284 285 284 283 285 284 284 284 284 283 280
278 277 277 277 279 279 281 282 281 283 282 284 284 283 283 283 283 282 281 279 280 283 283 284 284 284 285 285 284 281 282 281
275 274 273 274 276 276 276 279 282 283 284 283 284 283 283 283 282 282 281 281 281 281 282 283 284 284 284 285 281 280 279 276
Wind_Speed
10 11 11 13 14 15 17 17 15 15 15 13 12 12 11 10 11 12 10 13 13 11 12 9 8 10 11 9 9 9 6 6
7 6 8 9 11 13 14 14 12 12 13 14 13 11 10 9 9 10 11 13 14 15 11 12 12 11 11 10 11 10 9 7
7 6 5 7 9 11 12 12 11 10 11 11 11 11 10 13 13 12 12 12 12 13 13 12 12 12 12 11 10 11 11 10
6 6 6 7 8 8 8 9 8 8 9 9 10 11 11 10 12 12 12 12 11 13 14 13 13 13 11 11 10 10 9 10
5 6 7 8 9 10 9 8 7 7 9 10 10 9 7 8 10 11 12 13 11 11 12 12 12 12 11 11 11 10 9 8
7 7 9 9 9 8 8 7 7 8 9 9 6 6 6 8 8 8 10 10 11 11 11 12 11 9 12 11 11 11 10 8
9 10 11 10 9 8 9 9 9 10 10 7 8 7 7 8 9 9 9 10 10 10 11 12 6 17 17 13 10 10 10 10
10 8 8 10 11 13 12 10 10 9 7 8 8 9 9 9 10 11 11 12 10 11 12 11 10 20 19 15 9 10 10 10
8 8 8 9 10 9 9 9 9 9 9 9 10 10 10 11 11 11 11 13 12 11 11 11 9 21 20 16 10 9 10 10
7 9 6 7 8 8 8 9 10 11 10 10 11 11 12 13 13 11 11 10 10 10 11 12 10 20 21 16 9 9 9 8
6 6 6 5 7 8 8 9 13 11 12 11 11 12 13 12 12 10 10 10 8 8 8 10 11 19 21 15 8 9 7 6
7 7 7 1 5 7 7 13 9 6 7 9 10 11 12 11 9 9 9 9 8 9 7 7 9 14 21 19 8 8 8 7
6 7 7 3 3 4 8 3 4 7 8 9 9 8 8 12 10 11 11 12 10 10 8 6 7 12 20 22 15 12 8 8
4 5 6 5 2 4 3 5 5 6 7 8 8 8 8 11 10 9 9 9 9 9 8 8 7 7 16 19 19 16 7 5
5 6 6 5 4 3 2 3 5 6 6 6 8 8 7 7 7 9 9 9 9 9 9 8 8 8 7 7 9 12 10 9
5 5 6 7 6 4 2 3 3 4 5 6 6 8 8 8 8 9 10 11 11 11 10 11 10 12 16 13 9 8 9 7
6 5 6 6 6 6 4 2 3 3 4 5 6 7 7 8 7 9 8 13 13 14 12 7 8 16 22 21 19 17 17 7
7 6 6 7 6 6 4 2 2 3 4 5 5 6 7 8 9 9 6 14 14 13 17 15 12 18 21 22 21 20 18 9
3 6 6 6 7 8 6 4 2 4 4 5 5 6 6 7 8 8 10 11 9 15 16 18 17 18 20 22 19 10 16 9
5 7 7 7 7 9 7 6 6 5 5 5 5 6 7 7 7 8 9 9 9 7 14 14 19 19 19 23 10 10 10 8
Wind_Direction
232 223 220 220 217 209 210 207 205 207 209 211 208 207 208 199 191 182 169 159 160 149 154 148 140 155 137 140 144 138 134 140
276 252 239 227 217 208 206 197 194 199 200 208 209 199 181 178 175 169 158 164 170 163 159 154 151 149 146 152 152 147 142 143
267 258 232 230 220 201 201 197 197 199 204 210 208 196 185 191 180 170 165 172 158 162 157 159 149 148 155 154 158 154 154 155
266 241 219 209 205 213 204 205 196 197 207 207 205 200 196 185 172 174 161 161 155 165 160 157 150 152 158 157 158 158 156 159
253 242 226 215 203 202 210 210 197 193 204 207 205 197 190 176 167 162 160 155 156 166 158 148 147 154 149 154 154 154 155 152
253 235 226 221 212 205 210 196 194 196 207 212 187 174 151 155 151 139 154 148 159 153 147 146 150 155 155 158 159 158 151 148
241 237 227 221 215 203 210 201 188 199 202 179 165 148 154 147 149 143 147 144 159 165 151 153 150 162 161 157 159 159 156 157
254 247 230 215 208 212 205 185 194 193 176 168 164 166 162 155 153 157 160 156 156 162 161 158 156 168 167 158 155 158 163 163
278 261 235 219 206 212 189 181 181 190 179 178 173 168 161 162 169 163 168 170 165 159 167 158 167 170 168 162 155 159 165 167
299 286 263 216 202 180 178 180 191 199 190 184 179 174 172 176 175 170 167 168 172 167 167 164 164 171 170 160 158 160 165 169
315 283 262 232 169 168 183 188 212 201 196 184 182 178 182 181 177 173 173 166 161 163 173 165 161 176 174 168 161 161 164 167
322 303 300 233 163 191 185 213 213 189 180 183 186 186 182 173 170 161 161 151 159 165 166 169 171 177 181 180 176 172 168 180
346 345 337 339 174 191 220 217 164 163 173 183 186 182 173 172 164 167 165 166 168 167 167 174 174 184 191 190 193 185 177 189
15 1 12 355 276 219 239 165 159 162 179 180 174 174 175 174 169 166 171 173 174 176 177 181 182 193 201 201 202 200 200 182
13 26 3 350 328 280 259 157 157 175 177 170 174 174 177 181 180 182 182 181 178 182 188 180 180 188 187 199 202 208 201 192
27 6 2 345 341 342 303 158 165 160 163 173 181 182 183 196 191 196 199 196 188 192 183 174 188 201 190 185 187 188 194 168
25 15 359 351 344 340 325 230 167 177 190 196 187 185 189 189 187 213 206 204 203 193 188 192 214 187 191 194 194 192 193 185
7 359 355 354 350 346 324 270 226 226 211 204 197 204 196 197 195 187 196 201 201 196 194 195 183 182 189 195 197 196 194 212
33 24 7 6 358 343 329 304 272 252 239 219 221 211 208 212 214 207 195 190 191 204 194 199 192 191 194 192 188 194 211 218
54 20 3 360 360 349 338 314 290 255 249 233 233 223 219 215 218 221 215 210 197 180 201 197 198 195 200 193 197 202 204 200